Lapse_Rate
5.8 5.7 5.7 5.7 5.6 5.6 5.6 5.5 5.5 5.4 5.3 5.3 5.3 4.9 4.8 4.9 5.2 5.3 5.4 5.4 5.3 5.1 5.0 5.1 5.2 5.2 5.1 5.1 5.6 5.8 6.3 6.4 6.1 5.8 5.5 5.5 5.6 6.1 6.3 6.5 6.7 6.7 6.8 6.4 6.5 6.5 6.3 7.5 7.3 7.8 7.1 6.0 5.9 7.2
5.7 5.7 5.7 5.7 5.9 5.9 5.8 5.8 5.6 5.5 5.5 5.5 5.4 5.0 5.1 5.2 5.1 5.1 5.3 5.7 5.6 5.5 5.1 5.4 5.3 5.1 5.6 5.7 6.0 6.1 6.3 7.0 7.3 6.9 6.3 6.3 6.1 6.4 6.6 6.5 6.7 6.9 7.1 7.6 7.6 7.8 8.2 7.7 7.4 7.0 7.1 6.4 5.9 6.4
5.7 5.8 6.2 6.4 6.5 6.5 6.5 6.3 6.0 6.1 6.0 6.1 6.2 6.2 6.0 6.2 6.2 6.2 5.9 6.1 6.0 5.7 5.6 5.5 5.6 6.2 5.8 6.1 6.3 6.2 6.3 6.6 6.7 7.1 7.1 7.3 6.7 6.7 6.6 6.7 6.8 6.9 7.4 7.5 7.7 7.6 8.3 8.0 7.9 7.7 7.5 6.3 5.7 6.5
6.8 6.8 6.9 6.8 6.7 6.7 6.7 6.8 6.9 6.9 6.9 6.8 6.6 6.8 6.7 6.8 6.7 6.7 6.7 6.6 6.9 6.6 6.0 6.0 6.2 6.4 6.9 6.9 6.5 6.5 6.5 6.7 6.9 7.2 7.5 7.4 7.2 7.2 6.9 7.1 7.2 7.6 7.5 7.4 7.5 7.7 8.3 8.1 7.5 7.4 7.2 6.6 5.9 6.4
6.9 6.8 6.9 7.1 7.2 7.2 7.4 7.3 7.3 7.3 7.4 7.4 7.4 7.2 7.3 7.3 7.0 6.9 6.7 6.7 6.8 7.0 6.7 6.6 6.8 7.2 7.4 7.4 7.0 7.0 7.1 7.1 7.0 7.0 7.2 7.1 7.2 7.2 7.3 7.2 7.3 7.5 7.4 7.4 7.5 7.6 7.5 7.6 7.6 7.5 7.1 6.7 6.4 5.9
6.9 7.0 7.1 7.2 7.4 7.5 7.5 7.4 7.4 7.6 7.7 7.8 7.6 7.4 7.4 7.5 7.2 7.4 7.1 7.1 7.2 7.5 6.9 6.8 7.0 7.5 7.5 7.6 7.4 7.4 7.1 7.4 7.2 7.0 6.9 7.0 7.2 7.1 7.1 7.3 7.2 7.5 7.6 7.5 7.4 7.7 7.7 7.4 7.3 7.5 7.3 7.1 6.8 6.5
6.9 7.2 7.4 7.4 7.6 7.6 7.4 7.3 7.2 7.4 7.5 7.7 7.7 7.7 7.7 7.4 7.3 7.3 7.1 7.7 7.7 7.2 7.1 6.9 6.8 7.5 7.8 7.7 7.5 7.3 7.0 7.5 7.2 7.3 6.8 7.1 7.2 7.0 7.0 7.1 7.2 7.5 7.5 7.5 7.4 7.5 7.4 7.3 7.4 7.5 7.1 7.3 7.0 6.8
6.6 6.9 7.1 7.2 7.3 7.5 7.4 7.4 7.3 7.6 7.7 7.6 7.4 7.5 7.5 7.4 7.3 7.4 7.4 7.6 7.5 7.2 6.9 7.1 7.3 7.4 7.5 7.2 7.0 7.2 7.2 7.3 7.3 7.1 7.0 7.0 7.1 7.2 7.1 7.0 7.1 7.3 7.3 7.2 7.4 7.5 7.4 7.4 7.5 7.6 7.2 7.3 7.0 7.0
6.7 6.8 6.9 7.1 7.4 7.6 7.6 7.5 7.3 7.2 7.3 7.3 7.5 7.6 7.3 7.3 7.4 7.6 7.5 7.8 7.3 7.0 6.8 7.1 7.4 7.2 7.5 7.3 7.1 7.4 7.2 7.3 7.4 7.4 7.2 7.2 7.1 6.7 7.1 6.7 6.8 6.9 7.1 7.3 7.3 7.4 7.1 7.2 7.6 7.4 7.1 6.9 6.6 6.6
6.9 6.8 7.0 7.3 7.2 7.4 7.5 7.4 7.0 7.3 7.3 7.1 7.1 7.3 7.1 7.3 7.3 7.3 7.0 6.9 7.1 7.1 6.8 7.2 7.5 7.4 7.4 7.3 7.1 7.3 7.1 6.6 6.9 6.8 6.9 6.9 6.8 6.8 6.8 6.7 6.5 6.7 6.8 6.8 7.2 6.9 6.6 7.0 7.2 7.2 6.9 6.3 6.1 6.4
6.7 6.7 6.9 7.2 7.0 7.2 7.1 7.2 7.3 7.3 7.2 7.4 7.3 7.3 7.0 7.1 7.0 6.9 7.2 7.2 7.1 6.7 6.9 7.2 7.5 7.7 7.2 7.2 7.1 7.1 7.0 7.2 7.2 7.0 6.8 6.3 6.0 6.2 6.0 6.0 6.3 6.8 6.8 6.9 6.9 6.7 6.8 6.9 7.2 7.0 6.9 6.5 6.3 6.0
6.8 6.8 6.6 7.0 7.2 7.3 7.2 7.3 7.2 7.2 7.2 7.3 7.3 7.4 7.2 7.2 7.2 7.4 7.2 7.0 7.4 7.3 7.3 7.2 7.3 7.3 7.2 7.0 6.9 7.1 7.4 7.3 7.2 7.1 6.7 5.9 5.7 6.3 6.3 6.1 6.3 6.6 6.7 6.7 6.6 6.7 6.6 6.7 6.7 6.6 6.5 6.3 6.1 6.2
6.9 6.8 6.7 6.9 7.1 7.1 7.5 7.6 7.5 7.4 7.3 7.3 7.7 7.9 7.5 7.4 7.2 7.3 6.5 6.6 6.5 6.7 7.0 7.0 7.0 7.0 6.8 6.8 6.9 7.3 7.2 6.9 6.9 6.8 5.4 5.1 5.8 6.2 6.3 6.5 6.2 6.3 6.4 6.4 6.5 6.5 6.3 6.3 5.9 5.9 5.6 5.4 5.5 5.6
7.0 7.1 7.0 7.0 7.0 7.0 7.1 7.0 7.0 7.3 7.5 7.7 7.6 7.3 7.1 6.6 6.2 6.1 6.3 6.5 6.6 6.7 6.8 6.7 6.8 6.8 7.0 6.9 7.1 7.1 6.7 6.7 6.3 5.2 4.7 4.9 4.8 5.1 5.4 5.7 6.0 6.0 5.9 5.5 5.6 5.5 5.5 5.3 5.1 4.9 4.8 4.7 4.6 4.6
6.7 6.9 6.9 7.0 7.1 7.0 7.1 7.2 7.3 7.5 7.6 7.6 7.2 6.8 6.1 6.0 6.1 6.2 6.4 6.5 6.6 6.9 6.8 6.9 7.1 7.2 7.0 6.8 6.9 6.6 6.3 5.3 3.8 3.2 4.0 4.2 4.4 4.8 5.0 5.0 5.1 5.1 4.9 4.8 4.6 4.5 4.7 4.5 4.3 4.2 4.1 4.0 4.0 4.0
6.4 6.4 6.6 6.8 6.8 6.7 6.8 7.0 7.1 7.2 7.3 7.1 6.4 5.7 5.9 6.0 6.0 6.0 6.1 6.3 6.4 6.6 6.7 6.7 6.7 6.5 6.4 6.3 6.0 5.3 4.4 3.3 3.3 3.7 3.8 4.1 4.2 4.3 4.5 4.5 4.4 4.2 4.1 4.0 3.9 4.2 4.2 3.9 3.8 3.8 3.7 3.6 3.7 3.7
6.2 6.3 6.5 6.5 6.6 7.0 7.0 7.0 7.0 7.1 7.1 6.3 5.8 6.0 6.0 5.8 6.0 6.3 6.2 6.3 6.5 6.6 6.5 6.3 6.0 5.2 5.0 5.4 4.8 4.2 3.9 3.7 3.8 3.9 3.6 3.5 3.7 3.7 3.7 3.8 3.6 3.6 3.6 3.9 4.2 4.1 4.0 4.0 3.9 3.9 3.8 4.0 4.1 4.1
6.4 6.5 6.5 6.7 6.9 7.2 7.3 7.1 7.0 6.9 6.3 5.7 5.9 6.1 6.0 6.0 6.0 5.9 6.1 5.9 5.8 5.8 5.6 5.2 4.6 4.0 3.7 3.4 3.3 3.6 3.6 3.2 3.5 3.5 3.4 3.3 3.3 3.4 3.3 3.4 3.7 3.9 4.1 4.2 4.1 4.1 4.1 4.1 4.1 4.0 4.1 4.2 4.2 4.2
6.3 6.3 6.8 6.9 6.9 7.3 7.2 6.9 6.3 6.0 5.5 6.0 6.0 5.7 5.6 5.6 5.6 5.8 5.7 5.6 5.2 5.1 4.9 4.1 3.7 3.5 3.2 3.6 3.6 3.2 3.3 3.5 3.6 3.6 3.6 3.5 3.5 3.5 3.7 4.0 4.1 4.1 4.1 4.2 4.3 4.2 4.0 3.9 3.9 3.8 3.8 3.7 3.7 3.7
5.9 5.7 5.8 5.9 6.1 6.3 6.6 6.0 5.7 5.6 5.0 5.1 5.0 5.2 5.4 5.5 5.2 5.3 5.4 5.2 4.8 4.7 4.2 3.3 3.0 2.9 3.3 3.2 3.2 3.5 3.5 3.6 3.8 4.0 4.0 4.0 4.0 4.0 4.1 4.1 4.0 4.0 3.9 3.7 3.6 3.5 3.5 3.5 3.5 3.5 3.5 3.5 3.5 3.6
5.5 5.5 5.3 5.0 5.4 6.0 4.9 4.8 5.0 4.4 3.9 3.6 3.9 5.0 5.1 4.6 5.0 5.0 4.7 4.6 5.6 4.9 3.5 3.0 3.3 3.5 3.6 3.9 4.0 4.1 4.2 4.1 4.1 4.0 4.1 4.0 4.0 4.0 3.8 3.7 3.6 3.5 3.5 3.5 3.5 3.5 3.6 3.6 3.5 3.6 3.6 3.7 3.8 3.9
5.2 4.8 4.9 5.6 6.0 4.6 3.6 3.8 4.2 3.8 3.7 3.5 3.7 3.5 3.8 4.1 4.3 4.8 5.1 5.8 4.6 3.5 3.7 3.6 3.9 4.1 4.2 4.3 4.3 4.3 4.4 4.4 4.3 4.2 4.2 4.2 4.2 4.1 4.0 4.0 4.0 4.0 3.9 3.8 3.8 3.7 3.8 3.8 4.0 4.2 4.2 4.3 4.4 4.5
4.9 4.7 5.0 5.2 4.9 3.5 3.2 3.2 3.5 3.2 3.2 3.2 3.5 3.7 4.0 4.4 4.6 4.9 4.6 4.7 4.0 3.6 3.6 3.7 3.8 4.0 4.2 4.4 4.4 4.5 4.7 4.6 4.5 4.4 4.4 4.3 4.2 4.0 3.9 3.9 3.9 3.9 3.9 3.9 4.0 4.2 4.5 4.8 5.0 5.1 5.2 5.2 5.3 5.5
5.3 5.9 5.8 5.3 4.6 3.9 4.0 4.0 4.2 4.1 3.9 4.1 4.3 4.4 4.5 4.9 5.0 5.4 5.0 4.3 4.1 3.8 3.7 3.7 3.6 3.8 4.1 4.3 4.3 4.4 4.5 4.5 4.4 4.2 4.1 4.0 4.0 3.9 3.9 3.8 3.9 4.0 4.3 4.7 5.0 5.2 5.4 5.5 5.6 5.7 5.7 5.6 5.6 5.6
6.5 6.4 5.6 5.0 4.4 4.4 4.2 4.4 4.8 4.5 4.2 4.6 5.0 5.0 4.9 5.1 5.5 5.0 4.6 4.1 3.8 3.6 3.6 3.7 3.7 3.9 4.0 4.0 4.1 4.2 4.2 4.1 4.1 3.9 3.9 3.8 3.9 3.8 4.0 4.2 4.6 5.0 5.2 5.5 5.6 5.5 5.5 5.5 5.4 5.3 5.3 5.4 5.4 5.5
6.8 6.6 6.3 5.6 5.4 5.4 5.1 5.1 5.1 5.3 5.4 5.5 5.2 5.2 5.0 4.8 4.4 4.0 3.9 4.0 3.8 3.7 3.8 3.9 4.0 4.2 4.3 4.4 4.4 4.2 4.2 4.2 4.1 4.0 3.9 3.8 3.8 4.1 4.6 5.1 5.3 5.4 5.6 5.6 5.6 5.5 5.4 5.2 5.2 5.4 5.5 5.5 5.5 5.6
6.7 6.5 6.4 6.3 6.2 6.0 5.7 5.4 5.5 5.6 5.5 5.2 5.2 5.1 5.0 5.0 4.8 4.4 4.3 4.3 4.3 4.3 4.5 4.5 4.5 4.4 4.3 4.3 4.3 4.2 4.3 4.2 4.3 4.2 4.1 4.5 4.8 5.0 5.2 5.5 5.7 5.7 5.7 5.5 5.5 5.4 5.3 5.4 5.5 5.5 5.4 5.4 5.4 5.5
7.1 6.7 7.0 6.9 6.8 6.6 6.6 6.4 6.2 6.2 6.1 6.0 5.9 6.0 5.8 5.8 5.5 5.1 5.0 4.9 4.9 4.9 4.9 4.8 4.7 4.6 4.6 4.5 4.4 4.4 4.3 4.4 4.3 4.4 4.7 4.8 5.0 5.2 5.7 6.0 6.2 6.1 5.9 5.7 5.6 5.5 5.6 5.5 5.5 5.5 5.5 5.6 5.6 5.6
7.3 7.1 7.0 6.8 6.9 6.8 6.9 7.0 6.9 6.8 6.7 6.9 6.9 6.8 6.4 6.2 5.9 5.6 5.4 5.4 5.3 5.1 5.0 4.9 4.7 4.7 4.6 4.6 4.5 4.5 4.3 4.3 4.6 4.7 4.6 4.6 4.7 5.1 5.8 6.1 6.2 6.1 6.0 5.8 5.8 5.7 5.6 5.5 5.5 5.6 5.6 5.6 5.6 5.6
7.0 7.1 6.9 6.8 7.2 7.0 6.8 6.6 6.6 6.6 6.5 6.4 6.5 6.5 6.4 6.1 5.9 5.7 5.5 5.4 5.3 5.2 5.0 4.9 4.8 4.7 4.6 4.6 4.6 4.4 4.6 4.9 4.9 5.0 4.9 4.9 5.2 5.6 6.0 6.1 6.0 5.9 5.8 5.7 5.6 5.5 5.4 5.4 5.5 5.4 5.4 5.4 5.4 5.4
7.1 6.9 7.1 7.3 7.1 6.5 6.5 6.4 6.3 6.3 6.2 6.3 6.1 5.8 6.0 6.0 5.7 5.6 5.5 5.4 5.2 5.1 5.0 4.9 4.8 4.7 4.7 4.7 4.5 4.9 5.0 5.1 5.2 5.3 5.2 5.2 5.3 5.4 5.5 5.6 5.6 5.5 5.5 5.4 5.3 5.3 5.3 5.2 5.2 5.3 5.3 5.3 5.4 5.4
7.0 7.0 7.3 7.3 6.8 6.5 6.4 6.3 6.2 6.1 6.2 6.1 6.0 5.8 5.7 5.7 5.7 5.5 5.4 5.2 5.2 5.1 4.9 4.8 4.7 4.6 4.6 4.7 5.0 5.2 5.2 5.1 5.4 5.3 5.2 5.2 5.2 5.3 5.3 5.3 5.3 5.2 5.3 5.2 5.2 5.1 5.1 5.1 5.1 5.1 5.2 5.2 5.2 5.2
6.8 6.7 6.8 6.8 6.7 6.4 6.3 6.5 6.1 6.0 6.0 5.9 5.8 5.9 5.7 5.7 5.6 5.4 5.3 5.3 5.2 5.1 5.0 5.0 4.9 4.8 5.1 5.2 5.3 5.3 5.3 5.4 5.6 5.5 5.4 5.4 5.3 5.3 5.2 5.2 5.2 5.2 5.1 5.1 5.0 5.0 5.1 5.1 5.2 5.2 5.1 5.2 5.2 5.1
Wind_Speed
31 29 29 26 21 20 22 24 24 24 25 25 24 25 26 27 28 15 9 12 9 2 3 5 3 5 10 13 7 6 4 5 2 6 4 4 4 5 5 6 7 7 8 4 4 4 8 5 3 7 4 22 15 12
29 28 27 23 22 22 24 25 26 26 26 27 27 26 24 28 29 25 5 10 6 2 2 5 8 7 6 14 13 10 7 6 7 4 4 3 2 1 5 4 4 4 6 5 9 7 6 5 3 7 7 8 17 9
27 25 22 22 24 23 22 22 24 26 26 26 26 26 27 28 28 26 7 9 7 2 1 3 5 6 6 8 6 7 3 4 5 5 4 4 4 4 4 5 4 4 4 4 2 7 11 12 11 8 8 6 19 15
20 21 23 23 21 17 16 16 16 17 20 23 28 28 26 26 28 28 7 8 10 3 2 4 3 9 6 8 10 4 2 2 3 2 3 3 3 5 4 5 6 6 5 6 8 10 6 12 10 8 11 10 11 13
24 17 11 11 10 9 9 11 10 12 16 21 24 26 27 28 28 18 7 10 8 7 4 2 1 5 7 11 12 7 9 9 2 2 2 3 2 2 1 2 3 2 2 3 4 5 4 8 7 9 8 8 8 10
1 4 4 6 6 7 4 3 5 8 6 16 25 27 27 29 29 7 3 8 11 4 1 1 3 4 9 10 13 16 13 6 4 4 3 3 2 5 3 3 4 5 5 4 5 13 12 14 5 11 5 7 6 7
8 7 6 7 9 7 8 6 6 6 11 17 19 26 29 32 13 5 4 5 16 6 2 3 3 0 2 5 4 3 3 2 2 3 2 1 3 4 3 3 4 6 9 7 8 10 4 8 7 13 13 11 8 11
6 8 11 13 13 13 14 15 16 16 19 22 24 30 29 26 13 2 2 24 13 4 3 3 2 3 0 3 4 2 3 3 2 3 2 2 3 1 3 7 9 10 12 5 10 8 7 9 10 14 13 12 14 13
8 11 13 15 16 19 20 22 22 25 27 28 30 29 8 3 2 2 20 14 4 3 3 2 3 3 4 2 3 2 2 1 1 4 4 4 3 5 6 9 10 11 9 12 13 6 9 9 10 12 12 13 11 11
14 15 16 16 17 20 21 20 17 18 16 15 7 4 3 1 29 15 4 3 2 3 2 1 1 2 2 1 2 3 2 3 3 3 3 3 3 7 8 8 8 10 10 9 6 5 9 9 9 12 12 11 11 10
19 18 16 13 13 13 13 9 5 0 5 2 2 3 7 7 3 1 3 3 3 4 1 1 2 3 3 3 3 2 3 2 3 2 3 2 2 4 8 9 10 9 9 10 7 7 8 8 8 9 12 12 12 13
18 16 16 14 13 13 14 13 12 4 1 2 5 4 2 2 2 5 2 1 4 3 2 2 1 2 2 2 2 1 3 1 3 3 4 2 3 8 7 9 9 9 9 10 10 12 12 13 10 12 12 13 13 14
15 14 13 12 13 11 11 11 11 7 1 3 4 4 4 4 10 5 3 3 2 2 3 2 2 2 2 2 2 2 2 2 3 4 3 2 5 6 6 7 10 11 12 12 14 13 14 16 16 14 13 11 13 14
18 18 16 13 13 13 12 12 14 7 6 5 5 7 4 5 4 2 2 2 2 1 3 1 2 2 1 1 1 4 3 4 4 3 2 2 6 6 8 8 10 11 12 13 14 14 16 17 16 15 14 12 13 15
14 18 16 14 12 13 15 15 15 5 4 5 5 6 5 3 2 3 3 2 3 3 2 1 2 3 4 4 4 4 4 4 3 2 2 4 6 7 8 10 10 10 10 12 11 13 15 16 16 15 14 14 14 14
8 8 8 13 12 11 12 9 6 3 3 4 7 4 4 2 5 4 4 4 3 5 1 2 3 3 4 3 5 4 3 2 1 3 4 7 9 9 10 10 10 9 10 10 11 13 13 13 12 12 13 13 13 14
10 3 10 8 11 11 12 4 4 6 4 5 3 4 2 1 2 4 4 6 4 2 3 3 5 6 2 4 4 4 2 4 6 6 6 9 9 9 9 10 10 10 10 11 12 12 11 10 11 13 14 12 13 14
2 3 8 10 5 6 3 4 4 5 6 3 3 5 3 3 5 3 5 5 3 2 2 4 3 6 4 3 3 4 5 7 7 7 7 8 10 9 8 9 9 10 11 11 11 11 11 10 10 8 10 10 11 11
4 5 5 7 5 3 3 4 4 4 4 1 2 4 2 2 7 5 4 5 5 5 4 3 5 3 3 4 9 7 7 6 7 8 8 9 9 9 9 10 11 11 12 12 11 8 8 10 8 6 6 7 7 6
6 6 7 5 4 3 4 3 3 5 3 1 1 7 5 4 5 8 9 8 5 3 6 5 4 3 5 6 6 7 6 6 7 8 7 6 6 10 10 8 7 8 8 9 8 8 7 7 7 6 6 6 6 6
4 3 6 3 3 4 4 3 4 3 4 3 3 2 5 8 11 9 8 7 7 4 5 5 6 7 9 8 7 7 7 6 6 5 6 6 6 7 7 6 7 6 6 5 6 6 7 6 4 4 5 4 4 4
2 7 2 5 4 4 5 5 5 4 3 4 2 2 3 3 4 6 4 7 4 5 4 5 6 7 9 9 9 9 9 11 10 8 9 7 6 5 5 3 5 6 5 4 4 4 3 3 3 3 4 2 4 4
4 4 3 4 6 5 2 0 4 2 4 2 2 3 3 3 2 2 3 4 3 6 6 7 10 12 11 10 11 11 10 11 7 6 6 6 6 5 5 5 4 3 4 4 3 3 2 3 4 4 3 4 3 3
6 4 4 4 5 2 2 5 3 3 4 3 3 3 3 1 2 4 4 2 3 4 6 7 5 6 6 9 7 6 5 6 7 5 4 5 5 5 5 4 4 4 2 3 3 3 3 3 3 4 4 4 3 3
6 8 5 6 4 6 5 4 4 4 4 3 3 3 2 2 3 4 2 1 2 2 3 5 6 5 4 2 3 4 6 3 5 6 3 4 5 4 4 4 4 4 2 3 3 3 2 2 3 3 3 3 4 2
7 5 5 3 3 4 1 4 3 3 3 4 3 2 3 3 4 2 1 2 1 1 1 3 4 3 4 3 3 3 2 3 5 4 3 2 2 3 3 3 1 2 3 2 4 4 3 2 2 3 2 1 1 2
5 5 3 4 2 4 4 4 3 4 4 2 1 3 3 4 2 2 2 1 2 0 2 2 3 4 5 4 4 4 4 4 4 5 3 4 4 2 3 3 3 2 1 3 3 3 3 2 2 1 1 2 2 3
2 4 5 5 5 4 5 3 3 2 1 2 3 4 4 5 3 2 2 1 5 5 5 5 5 5 5 4 2 4 4 3 5 5 4 4 3 2 3 2 2 3 2 3 3 3 2 3 3 3 2 3 3 2
4 2 4 6 5 6 6 3 2 2 3 2 4 2 2 2 0 2 2 2 3 6 5 5 3 3 4 4 4 3 2 3 4 3 2 1 2 2 2 2 2 2 3 2 3 0 5 4 3 4 4 3 3 2
3 2 4 4 5 5 3 1 1 3 2 2 3 6 4 3 3 2 4 3 3 3 3 3 3 3 3 3 2 4 3 2 2 3 4 4 4 2 1 2 2 2 2 2 3 4 6 4 4 4 4 4 3 3
2 3 5 4 4 1 3 2 5 7 4 5 4 4 3 2 3 4 3 2 4 4 4 3 2 1 4 2 3 2 1 2 2 2 3 3 3 2 0 2 3 2 1 3 2 1 2 2 2 2 3 3 3 2
4 4 4 5 2 2 1 2 2 3 3 3 3 2 4 3 2 3 2 2 3 3 1 3 4 1 3 1 1 1 2 3 3 2 4 3 1 1 1 1 2 3 3 3 3 2 2 2 1 2 2 3 3 4
4 4 4 4 3 1 3 4 4 2 4 3 2 1 1 3 3 3 2 1 3 3 4 3 3 3 4 4 4 3 3 5 6 5 5 4 2 1 1 1 2 3 4 3 2 2 3 2 1 2 2 4 5 5
Wind_Direction
284 279 278 279 271 258 252 251 247 242 237 234 230 226 219 214 207 195 203 188 195 187 183 182 209 200 186 191 175 157 141 196 167 190 193 204 207 225 194 173 166 170 176 198 202 222 274 225 94 142 181 290 287 294
279 277 279 273 267 261 256 252 249 247 242 233 229 224 219 211 204 192 205 173 185 175 233 194 202 218 268 216 193 177 185 166 185 165 189 144 242 13 176 219 195 211 184 186 195 209 219 230 259 218 189 236 281 275
276 276 272 272 274 267 258 252 247 243 236 225 221 217 214 204 199 192 179 158 171 179 229 280 194 220 200 221 225 192 241 183 183 177 161 191 222 140 189 235 212 253 168 227 120 251 262 272 241 231 202 174 276 276
279 278 274 275 271 263 259 251 246 244 233 226 215 208 206 198 194 189 178 168 167 128 241 261 215 246 189 198 208 178 240 145 112 132 155 151 175 178 221 214 190 218 162 226 259 284 299 280 248 243 227 232 249 279
285 285 261 267 279 280 274 265 254 250 241 218 205 196 193 191 187 183 171 172 181 159 196 220 267 229 199 197 202 192 260 251 208 174 151 208 186 80 216 325 189 25 175 215 239 36 283 272 328 313 226 242 241 253
13 31 331 333 324 314 289 219 255 296 222 193 192 189 180 176 171 147 133 181 186 157 103 210 266 209 188 192 193 195 207 204 193 173 191 249 234 186 179 241 65 48 356 308 300 312 293 275 270 360 9 354 325 338
66 23 15 32 40 49 71 83 67 65 128 124 138 155 158 158 153 148 165 154 166 155 138 239 231 228 90 150 171 147 137 160 155 200 185 172 279 185 144 183 13 356 326 304 334 349 357 1 338 352 4 8 26 40
58 49 60 55 63 62 72 77 73 92 105 132 115 109 128 128 106 76 343 146 125 95 97 263 165 138 64 164 133 135 129 132 200 178 151 169 359 228 81 9 360 356 329 319 350 9 346 323 2 15 16 15 30 30
82 88 77 72 70 69 79 82 81 83 89 92 112 120 108 56 87 72 124 104 45 91 183 248 142 153 175 122 106 78 82 107 137 215 195 151 80 43 7 354 355 346 331 318 322 14 356 11 16 20 28 37 45 38
82 86 81 77 78 71 75 87 86 74 69 66 51 53 83 264 112 100 85 92 77 237 239 227 277 114 103 100 79 110 146 187 186 214 102 73 82 97 23 10 349 342 339 344 340 10 351 2 24 31 37 44 52 50
92 74 68 61 66 71 70 59 43 58 25 61 93 54 105 108 69 107 138 164 159 171 266 17 108 123 352 108 125 159 179 181 137 152 100 81 89 30 25 18 7 360 8 20 31 45 40 41 43 52 51 54 64 65
54 46 47 40 38 34 25 17 31 70 65 128 110 111 124 81 95 102 85 359 44 75 20 56 355 83 56 32 95 169 135 100 89 50 69 63 42 22 18 26 19 21 36 45 45 55 51 54 56 64 63 61 60 64
50 48 52 49 34 18 14 22 28 29 131 54 54 57 35 335 42 48 47 31 57 17 5 4 108 70 46 41 86 90 136 84 81 48 71 49 43 34 32 41 45 43 53 61 62 62 67 66 57 60 67 64 70 70
49 43 41 43 44 42 45 44 35 42 52 55 42 35 60 16 38 31 333 303 313 0 341 303 107 108 113 145 134 95 40 49 68 63 72 59 63 62 60 59 60 50 50 55 58 57 58 59 58 55 57 61 68 66
73 53 43 28 41 47 52 49 40 51 53 51 35 38 37 343 343 316 310 327 357 309 307 152 83 60 26 56 22 82 52 69 60 99 69 73 72 74 70 66 66 62 58 58 60 65 63 62 61 59 56 60 64 68
60 58 36 34 30 29 36 36 31 59 55 59 43 12 338 41 346 343 351 346 342 332 282 11 74 74 48 46 50 26 72 75 123 92 98 87 75 67 65 60 56 59 65 68 67 67 69 68 71 73 67 60 62 65
57 46 8 44 63 48 41 69 48 51 61 38 26 12 351 20 311 326 332 331 313 322 49 43 52 35 63 63 62 25 58 109 104 84 78 80 83 75 66 65 65 68 66 62 62 60 63 69 72 69 67 61 65 64
71 23 22 18 33 14 45 46 75 66 61 14 43 346 350 349 337 335 337 340 354 58 42 56 53 40 36 78 86 96 90 88 87 91 84 77 74 70 71 74 70 70 68 63 61 58 54 56 59 60 71 68 67 61
64 48 12 33 73 78 60 44 65 86 50 77 346 347 9 342 7 353 3 7 43 58 96 65 57 48 59 76 108 106 104 100 102 90 80 72 72 76 75 69 65 61 60 59 58 58 56 51 53 52 56 64 68 55
43 42 323 349 117 90 81 56 79 83 67 158 2 38 47 28 5 33 35 32 48 63 47 49 37 42 84 86 92 99 102 114 112 100 83 69 63 65 58 63 64 68 66 63 56 51 58 55 42 45 54 62 78 67
343 309 360 65 74 76 98 104 63 107 132 96 205 113 66 42 39 34 38 14 47 39 59 54 71 69 68 70 73 81 70 75 76 92 107 94 76 76 70 61 63 61 65 55 62 50 50 54 44 50 65 56 58 66
307 339 48 21 71 56 62 21 102 129 94 138 151 69 51 26 11 19 17 32 52 26 30 56 65 73 71 67 71 71 83 81 76 74 69 78 77 68 57 43 73 69 63 55 68 71 42 41 42 51 71 39 61 59
2 30 42 32 68 66 107 63 83 99 97 92 55 60 43 34 11 13 67 39 58 33 48 57 65 66 74 69 69 61 65 84 78 76 77 78 72 57 62 55 58 73 79 54 58 74 64 43 50 65 57 51 65 52
32 48 42 57 62 94 26 28 48 59 51 50 62 71 41 89 45 54 62 47 62 55 50 52 63 74 55 50 55 56 63 86 88 66 69 94 87 68 65 62 49 44 55 80 67 71 58 51 50 67 54 76 52 80
65 349 60 20 6 67 55 33 24 54 64 43 80 41 21 52 65 57 68 7 16 30 39 68 70 69 89 75 50 54 37 71 99 90 42 85 102 90 76 63 48 39 31 83 54 65 33 38 49 74 69 88 104 90
71 360 53 41 355 76 45 71 59 93 75 45 50 50 47 68 69 102 158 175 135 138 176 142 127 95 62 57 87 62 44 64 88 83 42 37 120 133 148 134 85 353 15 107 123 106 90 107 94 87 49 22 99 104
77 40 53 33 19 75 66 45 45 75 71 101 90 63 81 80 143 168 126 78 117 62 108 132 98 103 112 92 70 52 58 63 83 101 84 64 61 75 134 140 153 226 162 125 125 141 151 151 144 156 285 310 242 216
109 53 76 328 60 31 101 72 61 71 61 20 72 55 114 156 155 153 136 87 112 98 81 63 64 82 85 78 63 96 71 73 84 79 62 44 39 39 41 47 45 64 104 163 150 141 147 170 188 213 217 237 260 250
44 360 76 37 44 42 39 59 49 13 347 78 108 115 106 67 102 99 103 99 92 107 98 94 38 56 68 66 49 28 65 105 101 80 78 243 338 315 7 7 18 15 12 7 14 207 204 190 209 213 239 229 253 252
12 54 87 59 58 48 349 77 12 305 2 97 94 102 71 35 29 57 95 83 92 121 155 133 138 103 135 112 85 25 14 45 149 154 176 202 219 243 31 14 347 324 344 61 22 342 2 24 7 22 19 0 7 2
80 65 72 57 74 328 189 249 68 64 42 48 35 77 83 107 40 26 43 54 107 107 107 103 62 75 128 138 119 101 345 313 55 102 119 110 107 108 271 291 304 325 103 92 74 54 21 28 31 14 7 357 342 349
35 71 114 102 133 266 40 62 87 82 15 51 2 30 20 51 50 318 340 85 85 83 185 140 122 219 210 205 183 238 165 134 147 154 133 123 139 222 269 334 14 70 75 69 58 71 77 96 56 17 330 320 316 308
55 57 63 89 61 34 289 87 36 62 31 44 10 146 122 133 157 240 314 56 180 168 166 189 178 136 153 155 154 160 139 136 137 144 142 133 92 79 161 132 87 88 89 81 66 65 42 31 342 305 294 298 298 297